Nassau

Airport
ICAO code: 
MYNN
Summary
ICAO Region: 
CARSAM
Territory: 
Location: 
Nassau,
Coordinates: 
Aerial View: 
25° 2' 20.4" N, 77° 27' 58.327" W
Airport WX: 
Tropical Revolving Storm
Metar
Observation
MYNN 251200Z 14009KT 9999 BKN025 26/22 A3010
Station
Nassau Airport
Date/Time
2022-05-25 12:00:00
Wind direction
140°
Wind speed
09 kts
Lowest cloud amount
broken clouds
Temperature
26°C
Dew point
22°C
Humidity
78%
Weather condition
n/a

Description

Lynden Pindling International Airport, formerly known as Nassau International Airport, is the largest airport in The Bahamas, and the largest international gateway into the country.

Climatology

Tropical Monsoon climate (Köppen climate classification Am) - monthly mean temperatures above 18°C in every month of the year and features wet and dry seasons. A tropical monsoon climate typically features less pronounced dry seasons than a tropical savanna climate and see less variance in temperatures during the course of the year. The driest month nearly always occurs at or soon after the "winter" solstice.

Runways

Designator Length Width Surface Rops
9/27 2537 46 ASP Yes/Yes
14/32 3358 46 ASP Yes/Yes
Airport map: 
Aerial View: 

Accidents and Serious Incidents at or in the vicinity of MYNN

SKYbrary Partners:

Safety knowledge contributed by: